Location: Great Malvern
(52.1167°N, 2.3167°W)
Time: 06:37:46
(UTC+00:00)

Ariane Rocket - Pass Details

Date: 18 September 2020
Orbit: 761 x 769 km, 98.7° (Epoch: 21 October)

Event Time Altitude Azimuth Distance (km) Brightness Sun altitude
Exits shadow 19:49:59 - 168° (SSE) 2,820 5.6 -14.8°
Reaches altitude 10° 19:51:17 10° 170° (S) 2,295 5.2 -15.0°
Maximum altitude 19:56:21 75° 255° (WSW) 798 3.2 -15.7°
Drops below altitude 10° 20:01:27 10° 342° (NNW) 2,317 6.1 -16.4°
Sets 20:03:47 0° 344° (NNW) 3,250 6.9 -16.8°
